Lid_Strength_Index
8 12 14 12 11 11 12 14 14 12 10 12 12 12 10 9 9 10 9 10 9 9 7 6 7 8 7 7 7 6 5 6 5 5 5 5 5 2 1 0 0 1 1 1
11 13 10 9 10 11 12 14 14 12 10 12 12 13 11 10 10 9 8 9 9 9 8 7 8 8 8 8 7 7 7 7 6 6 5 5 5 4 2 1 1 1 2 2
13 11 9 10 12 13 13 14 14 13 11 12 13 14 13 11 11 10 9 8 8 8 8 9 9 8 9 9 8 8 8 8 8 7 6 4 3 3 2 1 4 5 4 4
11 9 10 12 12 12 15 11 11 13 14 17 15 19 16 14 12 11 10 9 9 8 8 9 9 9 9 9 9 9 9 9 9 8 7 5 4 4 3 4 6 7 7 6
13 12 11 13 12 10 13 11 11 12 14 16 17 18 18 15 15 13 11 11 11 10 9 10 9 9 9 10 10 10 10 11 11 11 9 7 6 4 4 7 8 9 9 9
11 10 10 11 10 9 10 11 12 13 15 20 17 18 19 17 14 13 12 12 11 11 10 10 10 10 11 11 12 12 12 12 12 12 12 10 8 6 6 7 9 11 11 9
12 11 10 10 12 10 11 14 19 20 20 21 17 16 17 14 13 12 11 11 11 11 11 11 11 12 12 12 13 12 12 13 13 13 13 12 12 10 9 9 10 10 11 10
15 19 11 10 11 12 12 13 18 22 21 21 17 19 17 14 12 11 10 10 10 10 10 11 11 11 12 12 12 13 13 14 14 14 14 14 13 13 12 12 11 11 11 12
16 16 11 10 9 9 13 15 11 16 20 20 19 18 15 14 14 12 11 11 10 10 10 10 11 11 12 12 12 13 13 13 14 15 15 15 14 14 14 14 14 13 12 12
12 16 11 10 9 9 11 10 16 15 21 25 20 20 18 15 13 12 12 11 11 10 10 10 10 11 11 12 12 13 13 13 14 15 15 15 15 15 15 15 16 15 15 15
10 12 14 11 13 13 12 13 13 13 15 20 22 20 16 14 13 12 12 11 10 10 10 11 12 12 12 12 13 13 14 14 15 15 15 16 16 16 16 16 17 16 16 16
10 13 16 14 10 9 10 12 12 17 19 17 17 16 13 14 13 12 12 11 10 10 10 11 11 12 13 13 13 14 14 14 15 15 15 16 16 17 17 17 17 16 16 16
9 14 18 16 14 11 13 11 11 12 13 16 18 17 11 11 12 12 11 11 11 11 11 11 12 13 13 14 14 14 14 15 15 16 16 17 17 18 18 18 17 16 16 16
8 12 15 17 15 13 15 13 11 13 16 16 15 14 12 12 12 11 11 9 10 10 9 10 11 12 12 13 14 14 15 15 16 16 17 17 18 18 18 17 17 16 16 16
10 15 13 12 13 12 13 13 12 14 13 16 13 13 11 9 9 8 8 8 9 9 9 9 10 10 11 12 13 13 14 15 16 17 17 17 17 17 17 16 16 16 16 15
9 14 13 15 12 12 14 12 12 12 12 12 12 13 8 7 7 9 8 9 8 8 7 8 8 8 9 11 12 12 13 13 14 15 16 16 16 16 16 16 16 16 16 15
11 13 14 17 13 14 16 13 12 12 11 11 15 11 8 8 8 8 8 8 8 7 7 7 7 7 7 8 10 12 12 13 14 15 15 16 16 16 16 16 16 16 16 16
12 12 13 17 15 20 13 11 9 11 10 9 9 9 8 8 7 6 8 8 7 7 7 7 6 6 6 7 9 10 13 14 14 15 15 15 16 16 16 16 16 16 15 16
9 12 15 17 17 15 13 11 12 12 12 9 9 8 8 7 8 8 6 7 7 7 6 6 7 8 8 8 10 12 13 14 14 14 15 15 16 16 17 17 17 16 16 16
10 10 14 17 19 20 13 11 10 10 14 10 9 9 8 8 11 9 7 9 8 8 8 9 10 11 11 10 12 13 14 14 14 14 15 15 15 16 17 17 17 17 16 16
14 13 15 16 17 15 12 12 10 17 13 10 10 10 10 11 9 8 10 10 10 10 10 11 13 13 14 14 14 14 14 14 14 15 16 16 16 16 16 17 17 17 17 16
14 15 16 15 17 18 11 12 13 11 11 11 11 10 11 10 10 10 9 10 10 11 11 13 14 15 16 15 15 15 16 16 16 16 16 17 17 17 17 17 16 16 16 17
17 12 14 13 14 12 12 12 11 11 10 11 11 11 10 11 10 10 10 11 12 12 13 13 15 15 16 16 15 14 14 17 17 17 18 18 17 17 16 17 17 17 17 18
14 13 14 13 13 11 11 12 11 10 10 11 11 11 12 11 12 12 12 13 13 13 13 14 16 15 15 17 16 17 17 17 18 18 19 18 18 17 17 17 17 17 18 18
15 13 14 14 11 12 12 12 12 12 12 12 13 13 14 14 14 14 14 14 14 14 14 16 16 16 17 17 18 19 18 18 18 18 19 18 17 17 17 17 17 17 17 17
13 13 15 14 12 12 12 12 12 13 13 14 15 15 15 15 16 16 16 16 16 16 16 16 17 17 19 20 20 20 20 18 18 18 17 18 18 18 18 19 19 16 16 16